Location: Cabo di Oristano
(39.8500°N, 8.4333°E)
Time: 16:51:31
(UTC+00:00)

Cosmos 1850 Rocket - Pass Details

Date: 31 January 2023
Orbit: 753 x 785 km, 74.0° (Epoch: 31 March)

Event Time Altitude Azimuth Distance (km) Brightness Sun altitude
Exits shadow 05:34:28 - 337° (NNW) 3,224 6.9 -12.0°
Rises 05:34:29 0° 337° (NNW) 3,218 6.9 -12.0°
Reaches altitude 10° 05:36:52 10° 334° (NNW) 2,292 6.1 -11.6°
Maximum altitude 05:41:58 60° 255° (WSW) 873 4.0 -10.6°
Drops below altitude 10° 05:47:05 10° 177° (S) 2,295 6.7 -9.7°
Sets 05:49:28 0° 173° (S) 3,222 7.5 -9.2°
